Location: Detroit
(42.3310°N, 83.0460°W)
Time: 11:01:54
(UTC-05:00)

Altair - All Passes

Search period start: 29 January 2023 00:00
Search period end: 08 February 2023 00:00
Orbit: 1501 x 1683 km, 47.2° (Epoch: 28 January)

Date Brightness Start Highest point End Pass type
(mag) Time Alt. Az. Time Alt. Az. Time Alt. Az.
29 Jan - 00:15:16 10° W 00:25:16 67° N 00:35:26 10° E night (unlit)
29 Jan - 02:20:38 10° WNW 02:30:51 89° SSW 02:41:02 10° ESE visible
29 Jan - 04:25:58 10° WNW 04:35:04 39° SW 04:44:04 10° SSE visible
29 Jan - 19:41:31 10° SSW 19:50:13 40° SE 19:59:13 10° ENE visible
29 Jan - 21:44:32 10° WSW 21:54:23 89° NNW 22:04:35 10° ENE visible
29 Jan - 23:50:00 10° W 23:59:57 67° N 00:10:07 10° E visible
30 Jan - 01:55:23 10° WNW 02:05:35 87° NNE 02:15:48 10° ESE visible
30 Jan - 04:00:38 10° WNW 04:09:56 42° SW 04:19:08 10° SSE visible
30 Jan - 19:16:38 10° SSW 19:25:06 36° SE 19:33:52 10° ENE visible
30 Jan - 21:19:20 10° WSW 21:29:09 87° SSE 21:39:19 10° ENE visible
30 Jan - 23:24:43 10° W 23:34:39 67° N 23:44:49 10° E visible
31 Jan - 01:30:09 10° WNW 01:40:20 84° NNE 01:50:33 10° ESE night (unlit)
31 Jan - 03:35:20 10° WNW 03:44:48 46° SW 03:54:10 10° SSE visible
31 Jan - 05:45:15 10° WSW 05:47:38 11° WSW 05:50:01 10° SW visible
31 Jan - 18:51:47 10° SSW 19:00:01 33° SE 19:08:30 10° ENE visible
31 Jan - 20:54:10 10° WSW 21:03:55 84° SSE 21:14:03 10° ENE visible
31 Jan - 22:59:26 10° W 23:09:21 67° N 23:19:30 10° E visible
01 Feb - 01:04:55 10° WNW 01:15:04 82° NNE 01:25:17 10° ESE night (unlit)
01 Feb - 03:10:03 10° WNW 03:19:38 49° SW 03:29:10 10° SSE visible
01 Feb - 05:18:40 10° W 05:22:36 13° WSW 05:26:32 10° SW visible
01 Feb - 18:27:00 10° S 18:34:56 31° SE 18:43:06 10° ENE visible
01 Feb - 20:29:01 10° SW 20:38:43 80° SSE 20:48:48 10° ENE visible
01 Feb - 22:34:10 10° W 22:44:02 68° N 22:54:11 10° ENE visible
02 Feb - 00:39:40 10° WNW 00:49:47 79° NNE 01:00:01 10° ESE night (unlit)
02 Feb - 02:44:47 10° WNW 02:54:28 53° SW 03:04:09 10° SSE visible
02 Feb - 04:52:35 10° W 04:57:34 15° WSW 05:02:31 10° SSW visible
02 Feb - 18:02:16 10° S 18:09:51 28° SE 18:17:41 10° ENE visible
02 Feb - 20:03:53 10° SW 20:13:30 76° SSE 20:23:32 10° ENE visible
02 Feb - 22:08:54 10° W 22:18:44 69° N 22:28:53 10° ENE visible
03 Feb - 00:14:25 10° WNW 00:24:30 77° NNE 00:34:44 10° ESE visible
03 Feb - 02:19:31 10° WNW 02:29:18 57° SW 02:39:06 10° SE night (unlit)
03 Feb - 04:26:45 10° W 04:32:31 17° WSW 04:38:15 10° SSW visible
03 Feb - 17:37:34 10° S 17:44:48 25° SE 17:52:13 10° ENE daylight
03 Feb - 19:38:46 10° SW 19:48:19 72° SSE 19:58:17 10° ENE visible
03 Feb - 21:43:39 10° W 21:53:27 70° N 22:03:35 10° ENE visible
03 Feb - 23:49:11 10° WNW 23:59:14 75° NNE 00:09:26 10° E visible
04 Feb - 01:54:15 10° WNW 02:04:07 60° SW 02:14:01 10° SE night (unlit)
04 Feb - 04:01:04 10° W 04:07:27 19° SW 04:13:50 10° SSW visible
04 Feb - 17:12:55 10° S 17:19:44 23° SE 17:26:44 10° E daylight
04 Feb - 19:13:41 10° SW 19:23:08 68° SE 19:33:01 10° ENE visible
04 Feb - 21:18:23 10° W 21:28:10 71° N 21:38:17 10° ENE visible
04 Feb - 23:23:56 10° WNW 23:33:56 73° NNE 23:44:08 10° E visible
05 Feb - 01:29:01 10° WNW 01:38:56 64° SW 01:48:55 10° SE night (unlit)
05 Feb - 03:35:27 10° W 03:42:22 21° SW 03:49:18 10° S night (unlit)
05 Feb - 16:48:22 10° SSE 16:54:42 20° SE 17:01:10 10° E daylight
05 Feb - 18:48:36 10° SW 18:57:58 64° SE 19:07:45 10° ENE visible
05 Feb - 20:53:08 10° W 21:02:53 72° NNW 21:13:00 10° ENE visible
05 Feb - 22:58:42 10° WNW 23:08:39 71° NNE 23:18:50 10° E visible
06 Feb - 01:03:46 10° WNW 01:13:44 68° SW 01:23:47 10° SE night (unlit)
06 Feb - 03:09:55 10° W 03:17:18 24° SW 03:24:41 10° S night (unlit)
06 Feb - 16:23:54 10° SSE 16:29:40 18° SE 16:35:32 10° E daylight
06 Feb - 18:23:33 10° SW 18:32:49 60° SE 18:42:28 10° ENE visible
06 Feb - 20:27:54 10° W 20:37:37 74° NNW 20:47:42 10° ENE visible
06 Feb - 22:33:27 10° WNW 22:43:21 70° N 22:53:31 10° E visible
07 Feb - 00:38:33 10° WNW 00:48:32 72° SSW 00:58:38 10° SE visible
07 Feb - 02:44:27 10° WNW 02:52:13 26° SW 03:00:00 10° S night (unlit)
07 Feb - 15:59:33 10° SSE 16:04:38 16° ESE 16:09:48 10° E daylight
07 Feb - 17:58:31 10° SW 18:07:40 56° SE 18:17:12 10° ENE daylight
07 Feb - 20:02:40 10° WSW 20:12:20 76° NNW 20:22:25 10° ENE visible
07 Feb - 22:08:12 10° WNW 22:18:04 69° N 22:28:12 10° E visible
